Location: Great Mongeham
(51.2000°N, 1.3667°E)
Time: 18:34:18
(UTC+00:00)

Daily predictions for brighter satellites

Satellite Brightness Start Highest point End
(mag) Time Altitude Azimuth Time Altitude Azimuth Time Altitude Azimuth
H-2A R/B 2.9 18:16:15 10° N 18:20:15 52° WNW 18:24:16 10° SW
SL-08 RB Rocket 4.2 18:16:09 10° SE 18:20:24 40° ENE 18:24:42 10° N
FALCON 9 DEB 2.9 18:19:07 10° WNW 18:22:19 88° SSW 18:25:31 10° ESE
HJ-1C 3.6 18:21:40 10° SE 18:24:51 46° ENE 18:28:02 10° N
COSMOS 2428 3.5 18:20:25 10° SSE 18:25:11 29° ESE 18:30:00 10° NE
SL-16 R/B 3.0 18:22:33 10° SW 18:28:07 56° NW 18:33:43 10° NNE
Cosmos 1470 Rocket 3.7 18:26:35 10° SSW 18:31:03 81° WNW 18:35:30 10° N
SKYMED 2 3.9 18:26:51 10° N 18:31:12 71° WNW 18:35:31 10° SSW
USA 307 3.1 18:27:29 10° WNW 18:31:47 66° NNE 18:35:52 11° E
Cosmos 2369 Rocket 4.2 18:29:35 10° N 18:31:48 12° NNE 18:34:01 10° NE
USA 306 3.1 18:28:45 10° WNW 18:33:03 67° NNE 18:37:06 11° E
SL-8 Rocket 4.2 18:28:46 10° SSE 18:34:39 47° E 18:40:32 10° NNE
CENTAUR R/B 3.8 18:31:19 10° SE 18:34:52 16° ESE 18:38:46 10° ENE
ATLAS CENTAUR R/B 1.4 18:32:11 10° SW 18:35:49 66° NW 18:39:31 10° NE
Cosmos 962 Rocket 4.5 18:32:10 10° S 18:38:22 70° E 18:44:40 10° NNE
Cosmos 1743 4.4 18:39:05 10° ESE 18:41:19 15° E 18:43:34 10° NE
Cosmos 1703 Rocket 3.6 18:37:51 10° N 18:42:16 89° W 18:46:38 10° S
USA 308 3.0 18:38:19 10° WNW 18:42:37 70° NNE 18:46:15 14° E
Cosmos 1666 2.7 18:39:11 10° S 18:42:50 55° E 18:46:31 10° NNE
Cosmos 1339 Rocket 4.5 18:38:02 10° N 18:44:17 71° ENE 18:50:34 10° SSE
Cosmos 2322 3.8 18:40:18 10° S 18:45:53 58° ESE 18:51:30 10° NE
Cosmos 1844 Rocket 3.9 18:40:47 10° NW 18:46:02 44° WSW 18:51:17 10° S
CSL-04 Rocket 3.7 18:40:58 10° SSE 18:46:28 75° ENE 18:51:57 10° NNW
Okean-O 3.1 18:45:12 10° S 18:49:37 67° WSW 18:54:03 10° NNW
ASTEX 1 4.2 18:46:19 10° NNE 18:50:35 29° E 18:54:49 10° SE
Cosmos 1777 Rocket 4.2 18:45:29 10° NNW 18:50:44 78° WSW 18:55:57 10° SSE
Cosmos 1933 Rocket 3.8 18:47:05 10° SSW 18:51:27 75° WNW 18:55:53 10° N
Cosmos 2366 rocket 4.2 18:46:47 10° SSE 18:52:53 53° E 18:59:03 10° NNE
H-2A R/B 2.8 18:48:22 10° S 18:53:45 60° W 18:59:07 10° NNW
CSL-04 Debris 4.2 18:48:37 10° SSE 18:54:05 89° ENE 18:59:37 10° NNW
SJ-6B 3.5 18:52:52 10° SE 18:56:35 35° ENE 19:00:14 10° N
Cosmos 2221 Rocket 4.1 18:53:31 10° N 18:57:41 39° ENE 19:01:51 10° SE
Ariane Rocket 3.6 18:55:35 10° SE 19:00:15 38° ENE 19:04:57 10° N
USA 186 1.7 18:59:36 22° SE 19:00:46 37° ENE 19:03:18 10° N
Cosmos 1500 4.5 18:58:53 10° SSW 19:02:28 43° WNW 19:06:05 10° N
OBJECT-B 1.7 19:02:09 21° ESE 19:03:28 29° ENE 19:06:20 10° N
NOSS 3-2 (C) 4.4 19:00:19 10° SSE 19:04:32 22° ESE 19:08:11 13° ENE
Okean 1-7 3.8 19:02:05 10° NNW 19:06:22 55° W 19:10:34 10° S
Meteor 1-11 Rocket 3.7 19:01:10 10° S 19:06:43 61° E 19:12:13 10° NNE
PSLV R/B 4.2 19:03:00 10° N 19:07:05 71° WNW 19:11:07 10° SSW
Cosmos 2360 Rocket 2.9 19:04:41 10° SW 19:10:14 57° NW 19:15:52 10° NNE
YAOGAN 1 4.1 19:06:34 10° SSW 19:10:37 39° W 19:14:43 10° NNW
SAR-Lupe-4 3.6 19:07:54 10° NNE 19:11:31 81° WNW 19:15:06 10° SSW
FALCON 9 DEB 3.7 19:08:58 10° WNW 19:12:03 45° SSW 19:13:45 22° SE
Cosmos 1943 Rocket 3.6 19:08:29 10° NNW 19:12:53 22° NE 19:15:25 17° ENE
SJ 16-02 1.3 19:10:51 10° NNW 19:15:17 76° ENE 19:19:18 12° SSE
Cosmos 1727 Rocket 3.9 19:09:28 10° N 19:15:40 68° ENE 19:21:51 10° SSE
Cosmos 2341 Rocket 4.2 19:10:15 10° SSW 19:16:32 75° WNW 19:22:48 10° N
Cosmos 2333 4.3 19:11:09 10° SSW 19:16:49 82° WNW 19:22:36 10° NNE
DMSP B5D2-2 4.1 19:11:49 10° NNE 19:16:59 56° E 19:22:05 10° S
Cosmos 1821 Rocket 4.4 19:11:38 10° SSE 19:17:12 36° E 19:22:45 10° NNE
Cosmos 2278 Rocket 2.2 19:11:41 10° NNW 19:17:23 74° ENE 19:22:11 15° SE
Cosmos 2237 Rocket 3.0 19:12:48 10° SSE 19:17:36 29° ESE 19:22:25 10° NE
Cosmos 1544 3.6 19:15:30 10° SSE 19:18:50 35° E 19:22:14 10° NNE
Okean 3 3.6 19:15:21 10° NNW 19:19:39 76° W 19:23:55 10° S
FALCON 9 DEB 4.1 19:16:54 10° W 19:19:52 37° SSW 19:21:22 22° SSE
SL-4 R/B 3.9 19:17:44 10° W 19:20:20 19° SW 19:22:51 10° S
MOS 1 4.4 19:15:42 11° SE 19:21:07 57° ENE 19:26:40 10° N
Cosmos 1536 2.7 19:17:13 10° S 19:21:12 71° E 19:25:10 10° NNE
USA 81 4.5 19:18:10 10° SSE 19:22:58 38° E 19:27:49 10° NNE
SeaSat 1 2.5 19:19:15 10° NE 19:24:06 53° ESE 19:28:55 10° SSW
Abrixas rocket 3.9 19:24:41 10° WSW 19:26:13 15° SSW 19:26:46 14° S
SPOT 3 Rocket 4.3 19:24:24 25° ESE 19:26:26 34° ENE 19:31:08 10° N
Cosmos 2218 Rocket 4.0 19:20:45 10° S 19:27:10 89° E 19:33:35 10° N
MetOp-A 4.1 19:25:36 10° SSE 19:30:58 88° WSW 19:36:23 10° NNW
Cosmos 864 Rocket 4.5 19:24:54 10° S 19:31:06 89° E 19:37:24 10° N
SME Rocket 4.1 19:24:04 10° NNE 19:31:34 55° E 19:36:29 10° S
Meteor 2-20 Rocket 4.4 19:25:41 10° N 19:31:45 61° ENE 19:37:09 13° SSE
Resurs 01 Rocket 2.4 19:31:41 30° E 19:32:20 32° ENE 19:36:17 10° N
USA 234 3.9 19:33:08 25° E 19:35:25 31° SE 19:41:07 10° SSW
Gbstr 26 Del rocket 3.5 19:31:02 10° WNW 19:35:39 71° SSW 19:38:19 31° ESE
Cosmos 2333 Rocket 2.4 19:32:07 10° SW 19:37:48 73° WNW 19:43:34 10° NNE
Cosmos 1937 Rocket 3.8 19:33:08 10° NNW 19:38:08 46° ENE 19:39:49 34° ESE
Cosmos 2123 Rocket 4.4 19:32:50 10° N 19:38:42 41° ENE 19:41:02 30° ESE
Lacrosse 4 Rocket 2.0 19:34:58 10° SW 19:39:23 64° NW 19:43:53 10° NNE
ERBS 3.5 19:38:41 10° WNW 19:41:39 30° N 19:42:16 28° NNE
USA 238 DEB 3.7 19:37:36 10° SSW 19:43:57 53° ESE 19:50:37 10° NE
IGS 5A 4.5 19:44:26 29° NE 19:44:26 29° NE 19:47:40 10° N
USA 238 3.7 19:37:44 10° SSW 19:44:03 53° ESE 19:50:43 10° NE
Cosmos 2322 Rocket 4.3 19:39:53 10° W 19:44:30 26° NW 19:49:11 10° NNE
Cosmos 1842 3.7 19:41:42 10° N 19:45:12 41° ENE 19:45:12 41° ENE
CZ-4 R/B 4.5 19:44:02 10° WSW 19:46:14 15° W 19:48:28 10° NW
Resurs 1-3 3.5 19:45:28 37° SE 19:47:02 66° ENE 19:51:25 10° N
ERS-2 4.0 19:44:25 10° N 19:47:42 32° WNW 19:50:59 10° SW
IRS-1A Rocket 4.2 19:46:16 13° SSE 19:51:15 87° WSW 19:56:49 10° NNW
Cosmos 2219 Rocket 2.6 19:48:29 10° SW 19:54:02 63° NW 19:59:39 10° NNE
CZ-2C R/B 3.4 19:49:38 10° N 19:54:57 53° WNW 20:00:07 10° SW
CREW DRAGON DEMO-1 DEB 4.5 19:53:49 10° WSW 19:55:13 25° SW 19:55:13 25° SW
Cosmos 1238 Rocket 3.1 19:52:45 10° SSW 19:56:39 59° W 19:59:59 10° N
USA 305 3.1 19:53:48 10° WNW 19:58:01 59° SSW 19:58:46 50° SSE
Terra 3.9 20:00:53 14° NE 20:00:53 14° NE 20:02:30 10° NNE
NOSS 5 (C) 4.4 19:56:46 10° SW 20:01:02 88° SE 20:01:05 87° E
Cosmos 1980 3.6 19:56:31 10° SSW 20:02:04 62° ESE 20:07:39 10° NE
ERS-1 Rocket 4.5 20:03:06 22° NE 20:03:06 22° NE 20:06:17 10° N
Cosmos 1733 Rocket 2.9 19:59:37 10° S 20:03:58 90° SW 20:08:23 10° N
COSMOS 2428 3.2 20:03:31 10° SW 20:09:08 59° NW 20:14:48 10° NNE
Meteor 2-9 Rocket 4.1 20:10:29 52° E 20:10:29 52° E 20:15:28 10° NNE
USA 307 3.3 20:07:36 10° WNW 20:11:46 52° SSW 20:12:00 51° SSW
NOSS 3-2 (A) 3.3 20:06:55 10° SW 20:12:39 85° SE 20:19:21 10° NE
USA 306 3.3 20:08:51 10° WNW 20:13:00 50° SSW 20:13:13 49° SSW
Spot 2 Rocket 4.2 20:14:35 37° NE 20:14:35 37° NE 20:18:50 10° N
ATLAS CENTAUR R/B 3.7 20:12:52 10° WNW 20:15:22 17° NNW 20:17:48 10° NNE
Cosmos 1743 3.3 20:12:48 10° SSW 20:16:38 56° WNW 20:20:30 10° N
Cosmos 2369 Rocket 3.1 20:12:45 10° NNW 20:17:45 31° NE 20:18:00 31° NE
Cosmos 1898 Rocket 3.7 20:12:33 10° NNW 20:17:46 71° WSW 20:19:30 42° S
NOSS 0 Rocket 3.9 20:16:16 10° SSW 20:22:26 87° WNW 20:28:39 10° NNE
USA 308 3.6 20:18:27 10° WNW 20:22:24 45° SW 20:22:24 45° SW
CENTAUR R/B 2.4 20:18:07 10° SSW 20:24:04 73° SE 20:31:17 10° NE
Cosmos 1674 Rocket 4.3 20:27:22 10° NNW 20:31:33 49° W 20:32:23 43° SW
Landsat 7 3.9 20:34:35 71° N 20:34:35 71° N 20:38:54 10° NNW
OBJECT-B 3.2 20:35:13 19° WSW 20:35:46 20° W 20:38:12 10° NW
Cosmos 372 Rocket 4.0 20:30:45 10° NNW 20:35:35 69° NNE 20:35:35 69° NNE
ARIANE 5 R/B 3.7 20:39:17 36° NNE 20:39:17 36° NNE 20:42:11 10° N
Ariane Rocket 4.3 20:35:45 17° SSW 20:39:14 37° W 20:43:58 10° NNW
ATLAS 5 CENTAUR R/B 4.0 20:37:14 10° WNW 20:40:22 17° NNW 20:40:39 17° N
Okean 2 4.3 20:37:47 10° NNW 20:40:56 47° NW 20:40:56 47° NW
Cosmos 1763 Rocket 3.5 20:38:43 10° SSW 20:44:03 79° WNW 20:49:24 10° NNE
Cosmos 2297 3.6 20:38:41 10° NNW 20:44:28 90° ENE 20:44:36 86° SE
MetOp-B 4.0 20:45:40 83° SW 20:45:47 84° WSW 20:51:12 10° NNW
In-Cosmos 22 4.3 20:43:21 10° N 20:48:36 69° NE 20:48:36 69° NE
Cosmos 1975 Rocket 4.4 20:47:18 10° N 20:49:55 34° N 20:49:55 34° N
SJ 16-02 4.1 20:50:51 10° WNW 20:53:15 15° W 20:55:39 10° SW
USA 281 4.1 20:54:08 32° NE 20:54:20 32° NE 21:00:02 10° NNW
NOSS 3-2 (C) 3.3 20:48:42 10° SW 20:54:28 87° NW 20:55:56 56° NE
Cosmos 468 Rocket 4.4 20:50:40 10° SW 20:55:56 63° WNW 21:01:11 10° NNE
Cosmos 1943 Rocket 2.3 20:51:50 10° NNW 20:56:57 71° N 20:56:57 71° N
Cosmos 2278 Rocket 4.2 20:56:38 10° NW 21:00:54 22° WSW 21:04:05 14° SW
Cosmos 2237 Rocket 2.7 20:55:41 10° SW 21:01:19 59° NW 21:06:59 10° NNE
SeaSat 1 4.0 20:57:02 10° NNE 21:01:27 34° NW 21:05:51 10° WSW
SPOT 3 Rocket 4.5 21:05:03 41° WSW 21:05:45 43° W 21:10:44 10° NNW
Resurs 01 Rocket 3.1 21:09:14 34° W 21:09:14 34° W 21:12:52 10° NNW
SPOT 1/Viking Rocket 4.2 21:14:33 53° NW 21:14:33 53° NW 21:18:43 10° NNW
Cosmos 1934 Rocket 4.3 21:14:32 47° SW 21:16:02 60° WNW 21:22:09 10° N
Lacrosse 4 Rocket 4.2 21:15:57 10° WNW 21:18:57 17° NNW 21:21:59 10° NNE
USA 234 3.5 21:20:31 58° SW 21:20:31 58° SW 21:25:37 10° WSW
USA 238 DEB 4.3 21:28:29 10° WSW 21:34:59 52° NNW 21:41:52 10° NE
USA 238 4.3 21:28:35 10° WSW 21:35:06 53° NNW 21:41:59 10° NE
Terra 3.8 21:39:46 25° N 21:39:46 25° N 21:41:42 10° NNW
Cosmos 2369 Rocket 3.6 21:56:38 10° NW 21:59:48 34° NW 21:59:48 34° NW
CENTAUR R/B 3.7 22:09:10 10° W 22:15:19 44° NNW 22:22:36 10° NE
USA 281 4.3 22:40:59 40° NW 22:40:59 40° NW 22:44:59 10° NNW
